Voltar ao catálogo

GEOSKAN-1

AtivoCiênciaSSO
NORAD 64880·PAYLOAD·🇷🇺 Russia
Este nome de satélite ainda não foi confirmado por fontes oficiais.

Lançado Jul 25, 2025 de Vostochny Cosmodrome

Loading…

Próximas Passagens (próximas 24 horas)

TLE

AtualizadoSource: Space-Track

Época: Sep 14, 2026, 14:59 UTC

1 64880U 25155E   26257.62460052  .00009305  00000-0  29939-3 0  9993
2 64880  97.4662 226.9107 0006230 203.9850 156.1102 15.32440577 94464

Acompanhe GEOSKAN-1 em tempo real com AllMySat

Download on the App Store